SFR633 FAPE-FAOR

Flight info

Callsign SFR633
Flight time 1h 25m
Altitude 35000
Route PEV DCT ITKIT UZ5 UNPOM UNPOM1B
Aircraft B738/M-SDE2E3FGHIRWXY/LB1

Departure

Time 2026-04-15 15:30
Airport Chief Dawid Stuurman International Airport (FAPE)

Arrival

Time 2026-04-15 16:55
Airport O.R. Tambo International Airport (FAOR)
Time Latitude Longitude Altitude Speed Heading
2026-04-15 14:51 -33.98446 25.61219 236 ft 0 kts 328°
2026-04-15 15:21 -33.98451 25.61223 237 ft 3 kts 328°
2026-04-15 15:21 -33.98468 25.61236 238 ft 3 kts 327°
2026-04-15 15:21 -33.98483 25.61247 236 ft 3 kts 345°
2026-04-15 15:21 -33.98500 25.61248 239 ft 3 kts 35°
2026-04-15 15:22 -33.98513 25.61231 236 ft 3 kts 58°
2026-04-15 15:22 -33.98518 25.61222 239 ft 0 kts 58°
2026-04-15 15:25 -33.98517 25.61223 234 ft 2 kts 58°
2026-04-15 15:26 -33.98497 25.61262 236 ft 6 kts 58°
2026-04-15 15:26 -33.98473 25.61307 234 ft 7 kts 63°
2026-04-15 15:26 -33.98446 25.61362 237 ft 8 kts 62°
2026-04-15 15:26 -33.98423 25.61427 234 ft 10 kts 69°
2026-04-15 15:27 -33.98387 25.61511 233 ft 12 kts 56°
2026-04-15 15:27 -33.98343 25.61592 236 ft 11 kts 58°
2026-04-15 15:27 -33.98303 25.61672 234 ft 11 kts 58°
2026-04-15 15:27 -33.98256 25.61764 234 ft 14 kts 57°
2026-04-15 15:28 -33.98227 25.61823 237 ft 7 kts 62°
2026-04-15 15:28 -33.98234 25.61882 236 ft 7 kts 128°
2026-04-15 15:28 -33.98264 25.61909 236 ft 2 kts 149°
2026-04-15 15:28 -33.98267 25.61911 235 ft 2 kts 149°
2026-04-15 15:29 -33.98310 25.61939 236 ft 11 kts 152°
2026-04-15 15:29 -33.98374 25.61939 239 ft 10 kts 225°
2026-04-15 15:29 -33.98445 25.61806 235 ft 46 kts 238°
2026-04-15 15:29 -33.98744 25.61229 237 ft 114 kts 238°
2026-04-15 15:30 -33.99252 25.60240 418 ft 151 kts 238°
2026-04-15 15:30 -33.99813 25.59147 1093 ft 159 kts 238°
2026-04-15 15:30 -34.00406 25.57994 1755 ft 161 kts 238°
2026-04-15 15:30 -34.01037 25.56828 2214 ft 177 kts 236°
2026-04-15 15:31 -34.01755 25.55542 2540 ft 189 kts 236°
2026-04-15 15:31 -34.02499 25.54194 2995 ft 195 kts 238°
2026-04-15 15:31 -34.02863 25.52625 3537 ft 204 kts 270°
2026-04-15 15:31 -34.02358 25.50995 4032 ft 216 kts 305°
2026-04-15 15:32 -34.01114 25.49956 4649 ft 225 kts 339°
2026-04-15 15:32 -33.99543 25.49895 5267 ft 232 kts 12°
2026-04-15 15:32 -33.98145 25.50857 5930 ft 233 kts 40°
2026-04-15 15:32 -33.97030 25.52243 6624 ft 228 kts 43°
2026-04-15 15:33 -33.95884 25.53565 7050 ft 234 kts 37°
2026-04-15 15:33 -33.94582 25.54913 7178 ft 259 kts 37°
2026-04-15 15:33 -33.93158 25.56377 7432 ft 279 kts 37°
2026-04-15 15:33 -33.91660 25.57929 7931 ft 288 kts 37°
2026-04-15 15:34 -33.90651 25.58980 8346 ft 291 kts 37°
2026-04-15 15:34 -33.89114 25.60592 8999 ft 295 kts 37°
2026-04-15 15:34 -33.87551 25.62235 9600 ft 301 kts 37°
2026-04-15 15:34 -33.85420 25.64482 10390 ft 309 kts 36°
2026-04-15 15:35 -33.84328 25.65631 10510 ft 322 kts 36°
2026-04-15 15:35 -33.82585 25.67464 10664 ft 343 kts 37°
2026-04-15 15:35 -33.80743 25.69403 10814 ft 361 kts 37°
2026-04-15 15:35 -33.78819 25.71433 11140 ft 372 kts 37°
2026-04-15 15:36 -33.76862 25.73504 11673 ft 376 kts 37°
2026-04-15 15:36 -33.74890 25.75592 12267 ft 379 kts 37°
2026-04-15 15:36 -33.72906 25.77690 12881 ft 381 kts 38°
2026-04-15 15:36 -33.70906 25.79803 13465 ft 385 kts 38°
2026-04-15 15:37 -33.68886 25.81933 14034 ft 388 kts 38°
2026-04-15 15:37 -33.66849 25.84078 14578 ft 391 kts 37°
2026-04-15 15:37 -33.64795 25.86240 15151 ft 394 kts 37°
2026-04-15 15:37 -33.62726 25.88416 15701 ft 397 kts 37°
2026-04-15 15:38 -33.60640 25.90607 16280 ft 400 kts 37°
2026-04-15 15:38 -33.58538 25.92815 16825 ft 403 kts 36°
2026-04-15 15:38 -33.56418 25.95039 17382 ft 406 kts 36°
2026-04-15 15:38 -33.54284 25.97277 17933 ft 409 kts 36°
2026-04-15 15:39 -33.52136 25.99529 18480 ft 412 kts 36°
2026-04-15 15:39 -33.49971 26.01797 18931 ft 415 kts 36°
2026-04-15 15:39 -33.47792 26.04078 19387 ft 418 kts 35°
2026-04-15 15:39 -33.45594 26.06377 19830 ft 421 kts 35°
2026-04-15 15:40 -33.43385 26.08688 20298 ft 423 kts 35°
2026-04-15 15:40 -33.41159 26.11013 20762 ft 426 kts 35°
2026-04-15 15:40 -33.38917 26.13353 21201 ft 429 kts 35°
2026-04-15 15:40 -33.36583 26.15564 21625 ft 426 kts 27°
2026-04-15 15:41 -33.34016 26.17286 22040 ft 421 kts 17°
2026-04-15 15:41 -33.31286 26.18508 22496 ft 419 kts 12°
2026-04-15 15:41 -33.28524 26.19635 22928 ft 421 kts 12°
2026-04-15 15:41 -33.25738 26.20760 23326 ft 424 kts 12°
2026-04-15 15:42 -33.22940 26.21898 23713 ft 427 kts 12°
2026-04-15 15:42 -33.20124 26.23055 24057 ft 429 kts 12°
2026-04-15 15:42 -33.17301 26.24224 24420 ft 430 kts 12°
2026-04-15 15:42 -33.14473 26.25402 24785 ft 431 kts 12°
2026-04-15 15:43 -33.11638 26.26585 25140 ft 432 kts 12°
2026-04-15 15:43 -33.08792 26.27773 25460 ft 435 kts 12°
2026-04-15 15:43 -33.05931 26.28966 25734 ft 437 kts 13°
2026-04-15 15:43 -33.03051 26.30166 26039 ft 439 kts 13°
2026-04-15 15:44 -33.00161 26.31371 26388 ft 440 kts 13°
2026-04-15 15:44 -32.97274 26.32573 26746 ft 440 kts 13°
2026-04-15 15:44 -32.94377 26.33779 27075 ft 442 kts 13°
2026-04-15 15:44 -32.91470 26.34987 27386 ft 443 kts 13°
2026-04-15 15:45 -32.88555 26.36197 27672 ft 445 kts 12°
2026-04-15 15:45 -32.85630 26.37411 27973 ft 446 kts 12°
2026-04-15 15:45 -32.82701 26.38626 28294 ft 446 kts 12°
2026-04-15 15:45 -32.79760 26.39845 28539 ft 448 kts 13°
2026-04-15 15:46 -32.76807 26.41068 28763 ft 451 kts 13°
2026-04-15 15:46 -32.73841 26.42296 29026 ft 452 kts 13°
2026-04-15 15:46 -32.70913 26.43508 29369 ft 451 kts 13°
2026-04-15 15:46 -32.67958 26.44731 29851 ft 448 kts 13°
2026-04-15 15:47 -32.65025 26.45948 30328 ft 445 kts 12°
2026-04-15 15:47 -32.62108 26.47159 30710 ft 443 kts 12°
2026-04-15 15:47 -32.59205 26.48363 31017 ft 442 kts 12°
2026-04-15 15:47 -32.56301 26.49565 31310 ft 442 kts 12°
2026-04-15 15:48 -32.53403 26.50765 31592 ft 440 kts 13°
2026-04-15 15:48 -32.50517 26.51959 31918 ft 439 kts 13°
2026-04-15 15:48 -32.47641 26.53149 32224 ft 437 kts 13°
2026-04-15 15:48 -32.44771 26.54334 32505 ft 437 kts 13°
2026-04-15 15:49 -32.41904 26.55518 32807 ft 436 kts 13°
2026-04-15 15:49 -32.39050 26.56696 33127 ft 433 kts 13°
2026-04-15 15:49 -32.36206 26.57869 33416 ft 433 kts 13°
2026-04-15 15:49 -32.33362 26.59040 33655 ft 433 kts 13°
2026-04-15 15:50 -32.30519 26.60211 33938 ft 432 kts 13°
2026-04-15 15:50 -32.27688 26.61376 34203 ft 430 kts 13°
2026-04-15 15:50 -32.24858 26.62540 34352 ft 432 kts 13°
2026-04-15 15:50 -32.22016 26.63707 34506 ft 432 kts 12°
2026-04-15 15:51 -32.19184 26.64872 34788 ft 429 kts 12°
2026-04-15 15:51 -32.16371 26.66027 35072 ft 427 kts 12°
2026-04-15 15:51 -32.10720 26.68330 35101 ft 431 kts 12°
2026-04-15 15:52 -32.05073 26.70630 35096 ft 427 kts 12°
2026-04-15 15:52 -31.99477 26.72909 35075 ft 424 kts 12°
2026-04-15 15:53 -31.93918 26.75170 35092 ft 422 kts 12°
2026-04-15 15:53 -31.88371 26.77421 35100 ft 422 kts 12°
2026-04-15 15:54 -31.82809 26.79676 35104 ft 424 kts 12°
2026-04-15 15:54 -31.77213 26.81943 35105 ft 427 kts 12°
2026-04-15 15:55 -31.71580 26.84226 35094 ft 430 kts 13°
2026-04-15 15:55 -31.65917 26.86522 35104 ft 432 kts 13°
2026-04-15 15:56 -31.60224 26.88827 35107 ft 434 kts 13°
2026-04-15 15:56 -31.54508 26.91138 35114 ft 436 kts 13°
2026-04-15 15:57 -31.48761 26.93459 35127 ft 437 kts 13°
2026-04-15 15:57 -31.42998 26.95784 35113 ft 438 kts 13°
2026-04-15 15:58 -31.37228 26.98108 35126 ft 439 kts 13°
2026-04-15 15:58 -31.31455 27.00424 35142 ft 439 kts 13°
2026-04-15 15:59 -31.25681 27.02737 35148 ft 438 kts 13°
2026-04-15 15:59 -31.19921 27.05042 35134 ft 437 kts 13°
2026-04-15 16:00 -31.14176 27.07339 35156 ft 436 kts 13°
2026-04-15 16:00 -31.08442 27.09629 35167 ft 435 kts 13°
2026-04-15 16:01 -31.02761 27.11894 35180 ft 434 kts 13°
2026-04-15 16:01 -30.97057 27.14166 35185 ft 433 kts 13°
2026-04-15 16:02 -30.91361 27.16433 35183 ft 432 kts 13°
2026-04-15 16:02 -30.85668 27.18694 35185 ft 432 kts 13°
2026-04-15 16:03 -30.79974 27.20953 35190 ft 432 kts 13°
2026-04-15 16:03 -30.74273 27.23213 35193 ft 433 kts 13°
2026-04-15 16:04 -30.68561 27.25474 35201 ft 434 kts 13°
2026-04-15 16:04 -30.62828 27.27737 35187 ft 436 kts 14°
2026-04-15 16:05 -30.57090 27.29999 35207 ft 436 kts 14°
2026-04-15 16:05 -30.51330 27.32268 35217 ft 438 kts 14°
2026-04-15 16:06 -30.45549 27.34543 35222 ft 440 kts 14°
2026-04-15 16:06 -30.39743 27.36825 35231 ft 441 kts 14°
2026-04-15 16:07 -30.33917 27.39112 35209 ft 443 kts 14°
2026-04-15 16:08 -30.25151 27.42549 35231 ft 445 kts 14°
2026-04-15 16:08 -30.19287 27.44844 35237 ft 445 kts 14°
2026-04-15 16:09 -30.13418 27.47139 35237 ft 446 kts 14°
2026-04-15 16:09 -30.07537 27.49434 35238 ft 446 kts 14°
2026-04-15 16:10 -30.01646 27.51731 35249 ft 447 kts 14°
2026-04-15 16:10 -29.95753 27.54026 35261 ft 447 kts 14°
2026-04-15 16:11 -29.89853 27.56320 35253 ft 448 kts 14°
2026-04-15 16:11 -29.83956 27.58612 35266 ft 447 kts 14°
2026-04-15 16:12 -29.78059 27.60900 35262 ft 446 kts 14°
2026-04-15 16:12 -29.72176 27.63179 35265 ft 446 kts 14°
2026-04-15 16:13 -29.66293 27.65456 35285 ft 446 kts 13°
2026-04-15 16:13 -29.60412 27.67728 35267 ft 446 kts 13°
2026-04-15 16:14 -29.54533 27.69999 35272 ft 446 kts 13°
2026-04-15 16:14 -29.48657 27.72264 35274 ft 446 kts 13°
2026-04-15 16:15 -29.42778 27.74527 35273 ft 445 kts 13°
2026-04-15 16:15 -29.36907 27.76785 35277 ft 445 kts 13°
2026-04-15 16:16 -29.31039 27.79040 35270 ft 445 kts 13°
2026-04-15 16:16 -29.25182 27.81288 35257 ft 444 kts 13°
2026-04-15 16:17 -29.19328 27.83531 35264 ft 443 kts 14°
2026-04-15 16:17 -29.13478 27.85770 35263 ft 443 kts 13°
2026-04-15 16:18 -29.07631 27.88005 35268 ft 443 kts 13°
2026-04-15 16:18 -29.01819 27.90224 35263 ft 443 kts 14°
2026-04-15 16:19 -28.95965 27.92456 35254 ft 444 kts 14°
2026-04-15 16:19 -28.90105 27.94688 35265 ft 444 kts 14°
2026-04-15 16:20 -28.85193 27.96558 35258 ft 445 kts 14°
2026-04-15 16:20 -28.79324 27.98788 35270 ft 445 kts 14°
2026-04-15 16:21 -28.73441 28.01022 35263 ft 446 kts 14°
2026-04-15 16:21 -28.67554 28.03254 35243 ft 446 kts 14°
2026-04-15 16:22 -28.61661 28.05486 35255 ft 446 kts 14°
2026-04-15 16:22 -28.55771 28.07715 35247 ft 446 kts 14°
2026-04-15 16:23 -28.49876 28.09942 35258 ft 447 kts 14°
2026-04-15 16:23 -28.43967 28.12172 35254 ft 447 kts 14°
2026-04-15 16:24 -28.38065 28.14398 35243 ft 447 kts 14°
2026-04-15 16:24 -28.32163 28.16622 35251 ft 447 kts 14°
2026-04-15 16:25 -28.26251 28.18844 35250 ft 448 kts 14°
2026-04-15 16:25 -28.20332 28.21063 35246 ft 448 kts 14°
2026-04-15 16:26 -28.14412 28.23282 35253 ft 448 kts 14°
2026-04-15 16:26 -28.08489 28.25500 35246 ft 448 kts 14°
2026-04-15 16:27 -28.02604 28.27702 35246 ft 448 kts 14°
2026-04-15 16:27 -27.96640 28.29907 35241 ft 447 kts 13°
2026-04-15 16:28 -27.90683 28.31918 35243 ft 446 kts 12°
2026-04-15 16:28 -27.84720 28.33890 35240 ft 447 kts 12°
2026-04-15 16:29 -27.78764 28.35879 35236 ft 445 kts 12°
2026-04-15 16:29 -27.72833 28.37872 35231 ft 444 kts 12°
2026-04-15 16:30 -27.66921 28.39859 35239 ft 442 kts 12°
2026-04-15 16:30 -27.61027 28.41837 35238 ft 441 kts 12°
2026-04-15 16:31 -27.55153 28.43805 35227 ft 440 kts 12°
2026-04-15 16:31 -27.49299 28.45764 35235 ft 438 kts 13°
2026-04-15 16:32 -27.43597 28.48275 35248 ft 440 kts 21°
2026-04-15 16:32 -27.40882 28.49730 35224 ft 426 kts 21°
2026-04-15 16:32 -27.38258 28.51157 35222 ft 413 kts 21°
2026-04-15 16:33 -27.33194 28.53874 35227 ft 393 kts 20°
2026-04-15 16:33 -27.28289 28.56450 35239 ft 390 kts 20°
2026-04-15 16:34 -27.23304 28.59042 35252 ft 400 kts 20°
2026-04-15 16:34 -27.18213 28.61691 35251 ft 405 kts 20°
2026-04-15 16:35 -27.13103 28.64354 34804 ft 406 kts 21°
2026-04-15 16:35 -27.10524 28.65695 34218 ft 408 kts 21°
2026-04-15 16:35 -27.07954 28.67032 33519 ft 407 kts 21°
2026-04-15 16:35 -27.05376 28.68372 32903 ft 409 kts 21°
2026-04-15 16:36 -27.02799 28.69712 32528 ft 406 kts 21°
2026-04-15 16:36 -27.00255 28.71034 32216 ft 400 kts 21°
2026-04-15 16:36 -26.97748 28.72334 31777 ft 395 kts 21°
2026-04-15 16:36 -26.95259 28.73616 31236 ft 393 kts 21°
2026-04-15 16:37 -26.92774 28.74889 30705 ft 392 kts 21°
2026-04-15 16:37 -26.90300 28.76156 30209 ft 390 kts 21°
2026-04-15 16:37 -26.87844 28.77413 29677 ft 386 kts 21°
2026-04-15 16:37 -26.85416 28.78658 29100 ft 382 kts 21°
2026-04-15 16:38 -26.83004 28.79894 28490 ft 381 kts 21°
2026-04-15 16:38 -26.80631 28.81109 27904 ft 379 kts 21°
2026-04-15 16:38 -26.78237 28.82334 27335 ft 377 kts 21°
2026-04-15 16:38 -26.75820 28.83440 26787 ft 374 kts 10°
2026-04-15 16:39 -26.73260 28.83629 26318 ft 367 kts 349°
2026-04-15 16:39 -26.70850 28.82829 25975 ft 359 kts 331°
2026-04-15 16:39 -26.68834 28.81232 25612 ft 354 kts 313°
2026-04-15 16:39 -26.67388 28.79028 25218 ft 352 kts 296°
2026-04-15 16:40 -26.66566 28.76478 24788 ft 348 kts 281°
2026-04-15 16:40 -26.66419 28.73793 24306 ft 347 kts 269°
2026-04-15 16:40 -26.66575 28.71106 23835 ft 345 kts 266°
2026-04-15 16:40 -26.66790 28.68442 23302 ft 343 kts 265°
2026-04-15 16:41 -26.67011 28.65807 22754 ft 339 kts 266°
2026-04-15 16:41 -26.67222 28.63196 22174 ft 336 kts 266°
2026-04-15 16:41 -26.67425 28.60569 21603 ft 333 kts 267°
2026-04-15 16:41 -26.67395 28.58027 21043 ft 330 kts 276°
2026-04-15 16:42 -26.67130 28.55455 20500 ft 328 kts 278°
2026-04-15 16:42 -26.66829 28.52993 20222 ft 317 kts 278°
2026-04-15 16:42 -26.66528 28.50619 20137 ft 301 kts 278°
2026-04-15 16:42 -26.66240 28.48382 20038 ft 286 kts 278°
2026-04-15 16:43 -26.65957 28.46214 19908 ft 274 kts 278°
2026-04-15 16:43 -26.65683 28.44131 19574 ft 269 kts 278°
2026-04-15 16:43 -26.65409 28.42060 19131 ft 270 kts 278°
2026-04-15 16:43 -26.65128 28.39972 18668 ft 273 kts 278°
2026-04-15 16:44 -26.64841 28.37879 18221 ft 272 kts 278°
2026-04-15 16:44 -26.64554 28.35798 17801 ft 270 kts 279°
2026-04-15 16:44 -26.64275 28.33731 17379 ft 268 kts 279°
2026-04-15 16:44 -26.64001 28.31674 16928 ft 267 kts 279°
2026-04-15 16:45 -26.63731 28.29622 16506 ft 267 kts 279°
2026-04-15 16:45 -26.63466 28.27574 16086 ft 266 kts 279°
2026-04-15 16:45 -26.63205 28.25536 15672 ft 265 kts 279°
2026-04-15 16:45 -26.62948 28.23501 15274 ft 264 kts 279°
2026-04-15 16:46 -26.62695 28.21475 14878 ft 263 kts 279°
2026-04-15 16:46 -26.62446 28.19453 14484 ft 262 kts 279°
2026-04-15 16:46 -26.62201 28.17436 14092 ft 262 kts 279°
2026-04-15 16:46 -26.61824 28.15462 13628 ft 259 kts 298°
2026-04-15 16:47 -26.60621 28.14025 13150 ft 256 kts 335°
2026-04-15 16:47 -26.58908 28.13697 12743 ft 253 kts 10°
2026-04-15 16:47 -26.57212 28.14200 12344 ft 253 kts 13°
2026-04-15 16:47 -26.55494 28.14633 11932 ft 253 kts 11°
2026-04-15 16:48 -26.53778 28.15033 11576 ft 251 kts 11°
2026-04-15 16:48 -26.52080 28.15418 11254 ft 247 kts 11°
2026-04-15 16:48 -26.50398 28.15796 10894 ft 246 kts 11°
2026-04-15 16:48 -26.48720 28.16169 10531 ft 245 kts 11°
2026-04-15 16:49 -26.47050 28.16539 10208 ft 244 kts 11°
2026-04-15 16:49 -26.45390 28.16906 9830 ft 243 kts 11°
2026-04-15 16:49 -26.43734 28.17271 9444 ft 242 kts 11°
2026-04-15 16:49 -26.42084 28.17634 9069 ft 241 kts 11°
2026-04-15 16:50 -26.40455 28.17992 8859 ft 236 kts 11°
2026-04-15 16:50 -26.38862 28.18342 8760 ft 229 kts 11°
2026-04-15 16:50 -26.37314 28.18679 8648 ft 225 kts 10°
2026-04-15 16:50 -26.35800 28.18991 8556 ft 218 kts 11°
2026-04-15 16:51 -26.34334 28.19340 8447 ft 213 kts 13°
2026-04-15 16:51 -26.32926 28.19717 8332 ft 204 kts 14°
2026-04-15 16:51 -26.31579 28.20114 8207 ft 197 kts 15°
2026-04-15 16:51 -26.30260 28.20521 8099 ft 197 kts 15°
2026-04-15 16:52 -26.28932 28.20935 8006 ft 200 kts 15°
2026-04-15 16:52 -26.27567 28.21360 7771 ft 206 kts 15°
2026-04-15 16:52 -26.26222 28.21778 7518 ft 194 kts 15°
2026-04-15 16:52 -26.24964 28.22170 7285 ft 181 kts 16°
2026-04-15 16:53 -26.23770 28.22541 7062 ft 179 kts 16°
2026-04-15 16:53 -26.22580 28.22912 6848 ft 176 kts 16°
2026-04-15 16:53 -26.21409 28.23277 6630 ft 174 kts 16°
2026-04-15 16:53 -26.20241 28.23640 6373 ft 174 kts 15°
2026-04-15 16:54 -26.19076 28.24004 6112 ft 173 kts 15°
2026-04-15 16:54 -26.17924 28.24364 5845 ft 171 kts 14°
2026-04-15 16:54 -26.16790 28.24712 5614 ft 167 kts 13°
2026-04-15 16:54 -26.15712 28.25048 5514 ft 144 kts 17°
2026-04-15 16:55 -26.14962 28.25282 5508 ft 81 kts 15°
2026-04-15 16:55 -26.14510 28.25422 5505 ft 56 kts 15°
2026-04-15 16:55 -26.14312 28.25476 5509 ft 22 kts
2026-04-15 16:55 -26.14160 28.25467 5510 ft 21 kts 348°
2026-04-15 16:56 -26.14033 28.25453 5509 ft 14 kts 342°
2026-04-15 16:56 -26.13999 28.25379 5510 ft 13 kts 232°
2026-04-15 16:56 -26.14081 28.25345 5511 ft 13 kts 194°
2026-04-15 16:56 -26.14164 28.25319 5509 ft 12 kts 197°
2026-04-15 16:57 -26.14247 28.25295 5508 ft 12 kts 194°
2026-04-15 16:57 -26.14318 28.25273 5508 ft 9 kts 196°
2026-04-15 16:57 -26.14381 28.25253 5509 ft 10 kts 198°
2026-04-15 16:57 -26.14424 28.25220 5510 ft 13 kts 235°
2026-04-15 16:58 -26.14399 28.25129 5514 ft 13 kts 315°
2026-04-15 16:58 -26.14334 28.25060 5526 ft 13 kts 316°
2026-04-15 16:58 -26.14248 28.24965 5530 ft 21 kts 315°
2026-04-15 16:58 -26.14145 28.24855 5530 ft 21 kts 316°
2026-04-15 16:59 -26.14042 28.24743 5534 ft 20 kts 315°
2026-04-15 16:59 -26.13944 28.24635 5531 ft 19 kts 316°
2026-04-15 16:59 -26.13849 28.24533 5534 ft 19 kts 315°
2026-04-15 16:59 -26.13756 28.24433 5538 ft 18 kts 315°
2026-04-15 17:00 -26.13667 28.24336 5542 ft 17 kts 315°
2026-04-15 17:00 -26.13582 28.24243 5538 ft 17 kts 316°
2026-04-15 17:00 -26.13500 28.24154 5540 ft 16 kts 316°
2026-04-15 17:00 -26.13419 28.24067 5548 ft 16 kts 315°
2026-04-15 17:01 -26.13369 28.24013 5551 ft 0 kts 315°
2026-04-15 17:01 -26.13365 28.24008 5550 ft 3 kts 315°
2026-04-15 17:01 -26.13362 28.24004 5550 ft 0 kts 315°
2026-04-15 17:02 -26.13334 28.23974 5547 ft 12 kts 316°
2026-04-15 17:03 -26.13264 28.23898 5549 ft 15 kts 316°
2026-04-15 17:03 -26.13193 28.23821 5546 ft 14 kts 313°
2026-04-15 17:03 -26.13145 28.23752 5546 ft 10 kts 288°
2026-04-15 17:03 -26.13136 28.23682 5544 ft 8 kts 276°
2026-04-15 17:04 -26.13131 28.23631 5544 ft 6 kts 277°
2026-04-15 17:04 -26.13126 28.23584 5545 ft 6 kts 277°
2026-04-15 17:04 -26.13122 28.23549 5545 ft 3 kts 276°
2026-04-15 17:04 -26.13120 28.23530 5549 ft 5 kts 276°
2026-04-15 17:05 -26.13115 28.23482 5547 ft 6 kts 276°
2026-04-15 17:05 -26.13117 28.23439 5546 ft 5 kts 249°
2026-04-15 17:05 -26.13162 28.23410 5547 ft 9 kts 190°
2026-04-15 17:05 -26.13219 28.23404 5546 ft 8 kts 186°
2026-04-15 17:06 -26.13245 28.23400 5548 ft 3 kts 186°
2026-04-15 17:06 -26.13284 28.23395 5547 ft 5 kts 186°
2026-04-15 17:06 -26.13306 28.23399 5547 ft 2 kts 146°
2026-04-15 17:06 -26.13310 28.23412 5548 ft 4 kts 109°
2026-04-15 17:07 -26.13316 28.23452 5546 ft 5 kts 96°
2026-04-15 17:07 -26.13317 28.23461 5546 ft 1 kts 95°
2026-04-15 17:07 -26.13318 28.23469 5546 ft 1 kts 96°
2026-04-15 17:07 -26.13319 28.23479 5546 ft 1 kts 96°
2026-04-15 17:08 -26.13319 28.23482 5546 ft 0 kts 96°